Location: Stuttgart
(48.7824°N, 9.1964°E)
Time: 20:36:42
(UTC+01:00)

ISS - Pass Details

Date: 31 January 2019
Orbit: 403 x 411 km, 51.6° (Epoch: 22 February)

Event Time Altitude Azimuth Distance (km) Brightness Sun altitude
Rises 18:08:16 0° 266° (W) 2,331 2.0 -8.4°
Reaches altitude 10° 18:10:23 10° 271° (W) 1,473 0.4 -8.7°
Maximum altitude 18:13:38 55° 350° (N) 498 -3.4 -9.3°
Enters shadow 18:16:20 14° 68° (ENE) 1,251 -2.0 -9.7°
